owner,sensor,date,latitude,longitude,air_pressure(mBar),qcFlag 
WAVCIS,ioos:station:WAVCIS:CSI03:1,2013-09-01T00:00:00Z,29.4412,-92.0613,1005.72,11111222 
WAVCIS,ioos:station:WAVCIS:CSI03:1,2013-09-01T01:00:00Z,29.4412,-92.0613,1005.95,11111222 
WAVCIS,ioos:station:WAVCIS:CSI03:1,2013-09-01T02:00:00Z,29.4412,-92.0613,1006.44,11111222 
WAVCIS,ioos:station:WAVCIS:CSI03:1,2013-09-01T03:00:00Z,29.4412,-92.0613,1006.77,11111222 
WAVCIS,ioos:station:WAVCIS:CSI03:1,2013-09-01T04:00:00Z,29.4412,-92.0613,1006.64,11111222 
WAVCIS,ioos:station:WAVCIS:CSI03:1,2013-09-01T05:00:00Z,29.4412,-92.0613,1006.4,11111222 
WAVCIS,ioos:station:WAVCIS:CSI03:1,2013-09-01T06:00:00Z,29.4412,-92.0613,1006.17,11111222 
WAVCIS,ioos:station:WAVCIS:CSI03:1,2013-09-01T07:00:00Z,29.4412,-92.0613,1006.17,11111222 
WAVCIS,ioos:station:WAVCIS:CSI03:1,2013-09-01T08:00:00Z,29.4412,-92.0613,1006.14,11111222 
WAVCIS,ioos:station:WAVCIS:CSI03:1,2013-09-01T09:00:00Z,29.4412,-92.0613,1005.91,11111222 
WAVCIS,ioos:station:WAVCIS:CSI03:1,2013-09-01T10:00:00Z,29.4412,-92.0613,1005.92,11111222 
WAVCIS,ioos:station:WAVCIS:CSI03:1,2013-09-01T11:00:00Z,29.4412,-92.0613,1006.52,11111222 
WAVCIS,ioos:station:WAVCIS:CSI03:1,2013-09-01T12:00:00Z,29.4412,-92.0613,1006.88,11111222 
WAVCIS,ioos:station:WAVCIS:CSI03:1,2013-09-01T13:00:00Z,29.4412,-92.0613,1007.36,11111222 
WAVCIS,ioos:station:WAVCIS:CSI03:1,2013-09-01T14:00:00Z,29.4412,-92.0613,1007.75,11111222 
WAVCIS,ioos:station:WAVCIS:CSI03:1,2013-09-01T15:00:00Z,29.4412,-92.0613,1007.71,11111222 
WAVCIS,ioos:station:WAVCIS:CSI03:1,2013-09-01T16:00:00Z,29.4412,-92.0613,1008.25,11111222 
WAVCIS,ioos:station:WAVCIS:CSI03:1,2013-09-01T17:00:00Z,29.4412,-92.0613,1008.13,11111222 
WAVCIS,ioos:station:WAVCIS:CSI03:1,2013-09-01T18:00:00Z,29.4412,-92.0613,1007.87,11111222 
WAVCIS,ioos:station:WAVCIS:CSI03:1,2013-09-01T19:00:00Z,29.4412,-92.0613,1007.65,11111222 
WAVCIS,ioos:station:WAVCIS:CSI03:1,2013-09-01T20:00:00Z,29.4412,-92.0613,1007.05,11111222 
WAVCIS,ioos:station:WAVCIS:CSI03:1,2013-09-01T21:00:00Z,29.4412,-92.0613,1006.58,11111222 
WAVCIS,ioos:station:WAVCIS:CSI03:1,2013-09-01T22:00:00Z,29.4412,-92.0613,1005.88,11111222 
WAVCIS,ioos:station:WAVCIS:CSI03:1,2013-09-01T23:00:00Z,29.4412,-92.0613,1005.57,11111222 
WAVCIS,ioos:station:WAVCIS:CSI03:1,2013-09-02T00:00:00Z,29.4412,-92.0613,1005.35,11111222 
WAVCIS,ioos:station:WAVCIS:CSI03:1,2013-09-02T01:00:00Z,29.4412,-92.0613,1005.45,11111222 
WAVCIS,ioos:station:WAVCIS:CSI03:1,2013-09-02T02:00:00Z,29.4412,-92.0613,1006.21,11111222 
WAVCIS,ioos:station:WAVCIS:CSI03:1,2013-09-02T03:00:00Z,29.4412,-92.0613,1007.01,11111222 
WAVCIS,ioos:station:WAVCIS:CSI03:1,2013-09-02T04:00:00Z,29.4412,-92.0613,1007.38,11111222 
WAVCIS,ioos:station:WAVCIS:CSI03:1,2013-09-02T05:00:00Z,29.4412,-92.0613,1007.29,11111222 
WAVCIS,ioos:station:WAVCIS:CSI03:1,2013-09-02T06:00:00Z,29.4412,-92.0613,1007.08,11111222 
WAVCIS,ioos:station:WAVCIS:CSI03:1,2013-09-02T07:00:00Z,29.4412,-92.0613,1006.9,11111222 
WAVCIS,ioos:station:WAVCIS:CSI03:1,2013-09-02T08:00:00Z,29.4412,-92.0613,1006.79,11111222 
WAVCIS,ioos:station:WAVCIS:CSI03:1,2013-09-02T09:00:00Z,29.4412,-92.0613,1006.9,11111222 
WAVCIS,ioos:station:WAVCIS:CSI03:1,2013-09-02T10:00:00Z,29.4412,-92.0613,1006.89,11111222 
WAVCIS,ioos:station:WAVCIS:CSI03:1,2013-09-02T11:00:00Z,29.4412,-92.0613,1007.26,11111222 
WAVCIS,ioos:station:WAVCIS:CSI03:1,2013-09-02T12:00:00Z,29.4412,-92.0613,1007.67,11111222 
WAVCIS,ioos:station:WAVCIS:CSI03:1,2013-09-02T13:00:00Z,29.4412,-92.0613,1007.98,11111222 
WAVCIS,ioos:station:WAVCIS:CSI03:1,2013-09-02T14:00:00Z,29.4412,-92.0613,1008.46,11111222 
WAVCIS,ioos:station:WAVCIS:CSI03:1,2013-09-02T15:00:00Z,29.4412,-92.0613,1009.32,11111222 
WAVCIS,ioos:station:WAVCIS:CSI03:1,2013-09-02T16:00:00Z,29.4412,-92.0613,1009.62,11111222 
WAVCIS,ioos:station:WAVCIS:CSI03:1,2013-09-02T17:00:00Z,29.4412,-92.0613,1009.42,11111222 
WAVCIS,ioos:station:WAVCIS:CSI03:1,2013-09-02T18:00:00Z,29.4412,-92.0613,1008.98,11111222 
WAVCIS,ioos:station:WAVCIS:CSI03:1,2013-09-02T19:00:00Z,29.4412,-92.0613,1008.59,11111222 
WAVCIS,ioos:station:WAVCIS:CSI03:1,2013-09-02T20:00:00Z,29.4412,-92.0613,1007.6,11111222 
WAVCIS,ioos:station:WAVCIS:CSI03:1,2013-09-02T21:00:00Z,29.4412,-92.0613,1006.43,11111222 
WAVCIS,ioos:station:WAVCIS:CSI03:1,2013-09-02T22:00:00Z,29.4412,-92.0613,1006.11,11111222 
WAVCIS,ioos:station:WAVCIS:CSI03:1,2013-09-02T23:00:00Z,29.4412,-92.0613,1005.79,11111222 
WAVCIS,ioos:station:WAVCIS:CSI03:1,2013-09-03T00:00:00Z,29.4412,-92.0613,1005.89,11111222 
WAVCIS,ioos:station:WAVCIS:CSI03:1,2013-09-03T01:00:00Z,29.4412,-92.0613,1006.24,11111222 
WAVCIS,ioos:station:WAVCIS:CSI03:1,2013-09-03T02:00:00Z,29.4412,-92.0613,1006.6,11111222 
WAVCIS,ioos:station:WAVCIS:CSI03:1,2013-09-03T03:00:00Z,29.4412,-92.0613,1006.99,11111222 
WAVCIS,ioos:station:WAVCIS:CSI03:1,2013-09-03T04:00:00Z,29.4412,-92.0613,1007.43,11111222 
WAVCIS,ioos:station:WAVCIS:CSI03:1,2013-09-03T05:00:00Z,29.4412,-92.0613,1007.47,11111222 
WAVCIS,ioos:station:WAVCIS:CSI03:1,2013-09-03T06:00:00Z,29.4412,-92.0613,1007.42,11111222 
WAVCIS,ioos:station:WAVCIS:CSI03:1,2013-09-03T07:00:00Z,29.4412,-92.0613,1007.24,11111222 
WAVCIS,ioos:station:WAVCIS:CSI03:1,2013-09-03T08:00:00Z,29.4412,-92.0613,1007.16,11111222 
WAVCIS,ioos:station:WAVCIS:CSI03:1,2013-09-03T09:00:00Z,29.4412,-92.0613,1007.22,11111222 
WAVCIS,ioos:station:WAVCIS:CSI03:1,2013-09-03T10:00:00Z,29.4412,-92.0613,1007.22,11111222 
WAVCIS,ioos:station:WAVCIS:CSI03:1,2013-09-03T11:00:00Z,29.4412,-92.0613,1007.6,11111222 
WAVCIS,ioos:station:WAVCIS:CSI03:1,2013-09-03T12:00:00Z,29.4412,-92.0613,1008.12,11111222 
WAVCIS,ioos:station:WAVCIS:CSI03:1,2013-09-03T13:00:00Z,29.4412,-92.0613,1008.7,11111222 
WAVCIS,ioos:station:WAVCIS:CSI03:1,2013-09-03T14:00:00Z,29.4412,-92.0613,1008.88,11111222 
WAVCIS,ioos:station:WAVCIS:CSI03:1,2013-09-03T15:00:00Z,29.4412,-92.0613,1009.39,11111222 
WAVCIS,ioos:station:WAVCIS:CSI03:1,2013-09-03T16:00:00Z,29.4412,-92.0613,1009.73,11111222 
WAVCIS,ioos:station:WAVCIS:CSI03:1,2013-09-03T17:00:00Z,29.4412,-92.0613,1009.71,11111222 
WAVCIS,ioos:station:WAVCIS:CSI03:1,2013-09-03T18:00:00Z,29.4412,-92.0613,1009.23,11111222 
WAVCIS,ioos:station:WAVCIS:CSI03:1,2013-09-03T19:00:00Z,29.4412,-92.0613,1008.43,11111222 
WAVCIS,ioos:station:WAVCIS:CSI03:1,2013-09-03T20:00:00Z,29.4412,-92.0613,1007.19,11111222 
WAVCIS,ioos:station:WAVCIS:CSI03:1,2013-09-03T21:00:00Z,29.4412,-92.0613,1006.52,11111222 
WAVCIS,ioos:station:WAVCIS:CSI03:1,2013-09-03T22:00:00Z,29.4412,-92.0613,1006.29,11111222 
WAVCIS,ioos:station:WAVCIS:CSI03:1,2013-09-03T23:00:00Z,29.4412,-92.0613,1006.57,11111222 
WAVCIS,ioos:station:WAVCIS:CSI03:1,2013-09-04T00:00:00Z,29.4412,-92.0613,1006.49,11111222 
WAVCIS,ioos:station:WAVCIS:CSI03:1,2013-09-04T01:00:00Z,29.4412,-92.0613,1007.03,11111222 
WAVCIS,ioos:station:WAVCIS:CSI03:1,2013-09-04T02:00:00Z,29.4412,-92.0613,1007.74,11111222 
WAVCIS,ioos:station:WAVCIS:CSI03:1,2013-09-04T03:00:00Z,29.4412,-92.0613,1008.33,11111222 
WAVCIS,ioos:station:WAVCIS:CSI03:1,2013-09-04T04:00:00Z,29.4412,-92.0613,1008.33,11111222 
WAVCIS,ioos:station:WAVCIS:CSI03:1,2013-09-04T05:00:00Z,29.4412,-92.0613,1008.45,11111222 
WAVCIS,ioos:station:WAVCIS:CSI03:1,2013-09-04T06:00:00Z,29.4412,-92.0613,1007.6,11111222 
WAVCIS,ioos:station:WAVCIS:CSI03:1,2013-09-04T07:00:00Z,29.4412,-92.0613,1007.51,11111222 
WAVCIS,ioos:station:WAVCIS:CSI03:1,2013-09-04T08:00:00Z,29.4412,-92.0613,1007.65,11111222 
WAVCIS,ioos:station:WAVCIS:CSI03:1,2013-09-04T09:00:00Z,29.4412,-92.0613,1007.96,11111222 
WAVCIS,ioos:station:WAVCIS:CSI03:1,2013-09-04T10:00:00Z,29.4412,-92.0613,1007.98,11111222 
WAVCIS,ioos:station:WAVCIS:CSI03:1,2013-09-04T11:00:00Z,29.4412,-92.0613,1008.56,11111222 
WAVCIS,ioos:station:WAVCIS:CSI03:1,2013-09-04T12:00:00Z,29.4412,-92.0613,1009.35,11111222 
WAVCIS,ioos:station:WAVCIS:CSI03:1,2013-09-04T13:00:00Z,29.4412,-92.0613,1010.11,11111222 
WAVCIS,ioos:station:WAVCIS:CSI03:1,2013-09-04T14:00:00Z,29.4412,-92.0613,1010.69,11111222 
WAVCIS,ioos:station:WAVCIS:CSI03:1,2013-09-04T15:00:00Z,29.4412,-92.0613,1011.41,11111222 
WAVCIS,ioos:station:WAVCIS:CSI03:1,2013-09-04T16:00:00Z,29.4412,-92.0613,1011.74,11111222 
WAVCIS,ioos:station:WAVCIS:CSI03:1,2013-09-04T17:00:00Z,29.4412,-92.0613,1011.19,11111222 
WAVCIS,ioos:station:WAVCIS:CSI03:1,2013-09-04T18:00:00Z,29.4412,-92.0613,1010.85,11111222 
WAVCIS,ioos:station:WAVCIS:CSI03:1,2013-09-04T19:00:00Z,29.4412,-92.0613,1010.03,11111222 
WAVCIS,ioos:station:WAVCIS:CSI03:1,2013-09-04T20:00:00Z,29.4412,-92.0613,1009.66,11111222 
WAVCIS,ioos:station:WAVCIS:CSI03:1,2013-09-04T21:00:00Z,29.4412,-92.0613,1009.63,11111222 
WAVCIS,ioos:station:WAVCIS:CSI03:1,2013-09-04T22:00:00Z,29.4412,-92.0613,1009.09,11111222 
WAVCIS,ioos:station:WAVCIS:CSI03:1,2013-09-04T23:00:00Z,29.4412,-92.0613,1009.07,11111222 
WAVCIS,ioos:station:WAVCIS:CSI03:1,2013-09-05T00:00:00Z,29.4412,-92.0613,1009.45,11111222 
WAVCIS,ioos:station:WAVCIS:CSI03:1,2013-09-05T01:00:00Z,29.4412,-92.0613,1009.51,11111222 
WAVCIS,ioos:station:WAVCIS:CSI03:1,2013-09-05T02:00:00Z,29.4412,-92.0613,1010.17,11111222 
WAVCIS,ioos:station:WAVCIS:CSI03:1,2013-09-05T03:00:00Z,29.4412,-92.0613,1010.35,11111222 
WAVCIS,ioos:station:WAVCIS:CSI03:1,2013-09-05T04:00:00Z,29.4412,-92.0613,1010.65,11111222 
WAVCIS,ioos:station:WAVCIS:CSI03:1,2013-09-05T05:00:00Z,29.4412,-92.0613,1010.52,11111222 
WAVCIS,ioos:station:WAVCIS:CSI03:1,2013-09-05T06:00:00Z,29.4412,-92.0613,1010.58,11111222 
WAVCIS,ioos:station:WAVCIS:CSI03:1,2013-09-05T07:00:00Z,29.4412,-92.0613,1010.41,11111222 
WAVCIS,ioos:station:WAVCIS:CSI03:1,2013-09-05T08:00:00Z,29.4412,-92.0613,1010.19,11111222 
WAVCIS,ioos:station:WAVCIS:CSI03:1,2013-09-05T09:00:00Z,29.4412,-92.0613,1010.29,11111222 
WAVCIS,ioos:station:WAVCIS:CSI03:1,2013-09-05T10:00:00Z,29.4412,-92.0613,1010.46,11111222 
WAVCIS,ioos:station:WAVCIS:CSI03:1,2013-09-05T11:00:00Z,29.4412,-92.0613,1010.83,11111222 
WAVCIS,ioos:station:WAVCIS:CSI03:1,2013-09-05T12:00:00Z,29.4412,-92.0613,1011.31,11111222 
WAVCIS,ioos:station:WAVCIS:CSI03:1,2013-09-05T13:00:00Z,29.4412,-92.0613,1011.74,11111222 
WAVCIS,ioos:station:WAVCIS:CSI03:1,2013-09-05T14:00:00Z,29.4412,-92.0613,1012.09,11111222 
WAVCIS,ioos:station:WAVCIS:CSI03:1,2013-09-05T15:00:00Z,29.4412,-92.0613,1012.68,11111222 
WAVCIS,ioos:station:WAVCIS:CSI03:1,2013-09-05T16:00:00Z,29.4412,-92.0613,1012.86,11111222 
WAVCIS,ioos:station:WAVCIS:CSI03:1,2013-09-05T17:00:00Z,29.4412,-92.0613,1012.53,11111222 
WAVCIS,ioos:station:WAVCIS:CSI03:1,2013-09-05T18:00:00Z,29.4412,-92.0613,1012.17,11111222 
WAVCIS,ioos:station:WAVCIS:CSI03:1,2013-09-05T19:00:00Z,29.4412,-92.0613,1011.49,11111222 
WAVCIS,ioos:station:WAVCIS:CSI03:1,2013-09-05T20:00:00Z,29.4412,-92.0613,1010.87,11111222 
WAVCIS,ioos:station:WAVCIS:CSI03:1,2013-09-05T21:00:00Z,29.4412,-92.0613,1010.34,11111222 
WAVCIS,ioos:station:WAVCIS:CSI03:1,2013-09-05T22:00:00Z,29.4412,-92.0613,1010.03,11111222 
WAVCIS,ioos:station:WAVCIS:CSI03:1,2013-09-05T23:00:00Z,29.4412,-92.0613,1010.12,11111222 
WAVCIS,ioos:station:WAVCIS:CSI03:1,2013-09-06T00:00:00Z,29.4412,-92.0613,1010.07,11111222 
WAVCIS,ioos:station:WAVCIS:CSI03:1,2013-09-06T01:00:00Z,29.4412,-92.0613,1010.2,11111222 
WAVCIS,ioos:station:WAVCIS:CSI03:1,2013-09-06T02:00:00Z,29.4412,-92.0613,1011.13,11111222 
WAVCIS,ioos:station:WAVCIS:CSI03:1,2013-09-06T03:00:00Z,29.4412,-92.0613,1011.07,11111222 
WAVCIS,ioos:station:WAVCIS:CSI03:1,2013-09-06T04:00:00Z,29.4412,-92.0613,1010.95,11111222 
WAVCIS,ioos:station:WAVCIS:CSI03:1,2013-09-06T05:00:00Z,29.4412,-92.0613,1010.94,11111222 
WAVCIS,ioos:station:WAVCIS:CSI03:1,2013-09-06T06:00:00Z,29.4412,-92.0613,1010.68,11111222 
WAVCIS,ioos:station:WAVCIS:CSI03:1,2013-09-06T07:00:00Z,29.4412,-92.0613,1010.71,11111222 
WAVCIS,ioos:station:WAVCIS:CSI03:1,2013-09-06T08:00:00Z,29.4412,-92.0613,1010.44,11111222 
WAVCIS,ioos:station:WAVCIS:CSI03:1,2013-09-06T09:00:00Z,29.4412,-92.0613,1010.16,11111222 
WAVCIS,ioos:station:WAVCIS:CSI03:1,2013-09-06T10:00:00Z,29.4412,-92.0613,1010.33,11111222 
WAVCIS,ioos:station:WAVCIS:CSI03:1,2013-09-06T11:00:00Z,29.4412,-92.0613,1010.6,11111222 
WAVCIS,ioos:station:WAVCIS:CSI03:1,2013-09-06T12:00:00Z,29.4412,-92.0613,1010.59,11111222 
WAVCIS,ioos:station:WAVCIS:CSI03:1,2013-09-06T13:00:00Z,29.4412,-92.0613,1011.69,11111222 
WAVCIS,ioos:station:WAVCIS:CSI03:1,2013-09-06T14:00:00Z,29.4412,-92.0613,1011.99,11111222 
WAVCIS,ioos:station:WAVCIS:CSI03:1,2013-09-06T15:00:00Z,29.4412,-92.0613,1012.26,11111222 
WAVCIS,ioos:station:WAVCIS:CSI03:1,2013-09-06T16:00:00Z,29.4412,-92.0613,1012.5,11111222 
WAVCIS,ioos:station:WAVCIS:CSI03:1,2013-09-06T17:00:00Z,29.4412,-92.0613,1012.18,11111222 
WAVCIS,ioos:station:WAVCIS:CSI03:1,2013-09-06T18:00:00Z,29.4412,-92.0613,1011.8,11111222 
WAVCIS,ioos:station:WAVCIS:CSI03:1,2013-09-06T19:00:00Z,29.4412,-92.0613,1010.95,11111222 
WAVCIS,ioos:station:WAVCIS:CSI03:1,2013-09-06T20:00:00Z,29.4412,-92.0613,1010.05,11111222 
WAVCIS,ioos:station:WAVCIS:CSI03:1,2013-09-06T21:00:00Z,29.4412,-92.0613,1009.66,11111222 
WAVCIS,ioos:station:WAVCIS:CSI03:1,2013-09-06T22:00:00Z,29.4412,-92.0613,1009.55,11111222 
WAVCIS,ioos:station:WAVCIS:CSI03:1,2013-09-06T23:00:00Z,29.4412,-92.0613,1009.21,11111222 
WAVCIS,ioos:station:WAVCIS:CSI03:1,2013-09-07T00:00:00Z,29.4412,-92.0613,1009.45,11111222 
WAVCIS,ioos:station:WAVCIS:CSI03:1,2013-09-07T01:00:00Z,29.4412,-92.0613,1009.29,11111222 
WAVCIS,ioos:station:WAVCIS:CSI03:1,2013-09-07T02:00:00Z,29.4412,-92.0613,1009.32,11111222 
WAVCIS,ioos:station:WAVCIS:CSI03:1,2013-09-07T03:00:00Z,29.4412,-92.0613,1009.73,11111222 
WAVCIS,ioos:station:WAVCIS:CSI03:1,2013-09-07T04:00:00Z,29.4412,-92.0613,1009.6,11111222 
WAVCIS,ioos:station:WAVCIS:CSI03:1,2013-09-07T05:00:00Z,29.4412,-92.0613,1009.31,11111222 
WAVCIS,ioos:station:WAVCIS:CSI03:1,2013-09-07T06:00:00Z,29.4412,-92.0613,1009.34,11111222 
WAVCIS,ioos:station:WAVCIS:CSI03:1,2013-09-07T07:00:00Z,29.4412,-92.0613,1009.09,11111222 
WAVCIS,ioos:station:WAVCIS:CSI03:1,2013-09-07T08:00:00Z,29.4412,-92.0613,1008.7,11111222 
WAVCIS,ioos:station:WAVCIS:CSI03:1,2013-09-07T09:00:00Z,29.4412,-92.0613,1008.69,11111222 
WAVCIS,ioos:station:WAVCIS:CSI03:1,2013-09-07T10:00:00Z,29.4412,-92.0613,1008.39,11111222 
WAVCIS,ioos:station:WAVCIS:CSI03:1,2013-09-07T11:00:00Z,29.4412,-92.0613,1009.38,11111222 
WAVCIS,ioos:station:WAVCIS:CSI03:1,2013-09-07T12:00:00Z,29.4412,-92.0613,1009.75,11111222 
WAVCIS,ioos:station:WAVCIS:CSI03:1,2013-09-07T13:00:00Z,29.4412,-92.0613,1010.17,11111222 
WAVCIS,ioos:station:WAVCIS:CSI03:1,2013-09-07T14:00:00Z,29.4412,-92.0613,1010.54,11111222 
WAVCIS,ioos:station:WAVCIS:CSI03:1,2013-09-07T15:00:00Z,29.4412,-92.0613,1011.11,11111222 
WAVCIS,ioos:station:WAVCIS:CSI03:1,2013-09-07T16:00:00Z,29.4412,-92.0613,1011.2,11111222 
WAVCIS,ioos:station:WAVCIS:CSI03:1,2013-09-07T17:00:00Z,29.4412,-92.0613,1011.03,11111222 
WAVCIS,ioos:station:WAVCIS:CSI03:1,2013-09-07T18:00:00Z,29.4412,-92.0613,1010.33,11111222 
WAVCIS,ioos:station:WAVCIS:CSI03:1,2013-09-07T19:00:00Z,29.4412,-92.0613,1010.15,11111222 
WAVCIS,ioos:station:WAVCIS:CSI03:1,2013-09-07T20:00:00Z,29.4412,-92.0613,1008.96,11111222 
WAVCIS,ioos:station:WAVCIS:CSI03:1,2013-09-07T21:00:00Z,29.4412,-92.0613,1008.83,11111222 
WAVCIS,ioos:station:WAVCIS:CSI03:1,2013-09-07T22:00:00Z,29.4412,-92.0613,1008.71,11111222 
WAVCIS,ioos:station:WAVCIS:CSI03:1,2013-09-07T23:00:00Z,29.4412,-92.0613,1009.59,11111222 
WAVCIS,ioos:station:WAVCIS:CSI03:1,2013-09-08T00:00:00Z,29.4412,-92.0613,1008.88,11111222 
WAVCIS,ioos:station:WAVCIS:CSI03:1,2013-09-08T01:00:00Z,29.4412,-92.0613,1008.95,11111222 
WAVCIS,ioos:station:WAVCIS:CSI03:1,2013-09-08T02:00:00Z,29.4412,-92.0613,1009.19,11111222 
WAVCIS,ioos:station:WAVCIS:CSI03:1,2013-09-08T03:00:00Z,29.4412,-92.0613,1009.32,11111222 
WAVCIS,ioos:station:WAVCIS:CSI03:1,2013-09-08T04:00:00Z,29.4412,-92.0613,1008.88,11111222 
WAVCIS,ioos:station:WAVCIS:CSI03:1,2013-09-08T05:00:00Z,29.4412,-92.0613,1008.79,11111222 
WAVCIS,ioos:station:WAVCIS:CSI03:1,2013-09-08T06:00:00Z,29.4412,-92.0613,1008.12,11111222 
WAVCIS,ioos:station:WAVCIS:CSI03:1,2013-09-08T07:00:00Z,29.4412,-92.0613,1008.01,11111222 
WAVCIS,ioos:station:WAVCIS:CSI03:1,2013-09-08T08:00:00Z,29.4412,-92.0613,1007.56,11111222 
WAVCIS,ioos:station:WAVCIS:CSI03:1,2013-09-08T09:00:00Z,29.4412,-92.0613,1007.52,11111222 
WAVCIS,ioos:station:WAVCIS:CSI03:1,2013-09-08T10:00:00Z,29.4412,-92.0613,1007.66,11111222 
WAVCIS,ioos:station:WAVCIS:CSI03:1,2013-09-08T11:00:00Z,29.4412,-92.0613,1007.86,11111222 
WAVCIS,ioos:station:WAVCIS:CSI03:1,2013-09-08T12:00:00Z,29.4412,-92.0613,1008.73,11111222 
WAVCIS,ioos:station:WAVCIS:CSI03:1,2013-09-08T13:00:00Z,29.4412,-92.0613,1009.28,11111222 
WAVCIS,ioos:station:WAVCIS:CSI03:1,2013-09-08T14:00:00Z,29.4412,-92.0613,1009.24,11111222 
WAVCIS,ioos:station:WAVCIS:CSI03:1,2013-09-08T15:00:00Z,29.4412,-92.0613,1009.44,11111222 
WAVCIS,ioos:station:WAVCIS:CSI03:1,2013-09-08T18:00:00Z,29.4412,-92.0613,1009.05,11111222 
WAVCIS,ioos:station:WAVCIS:CSI03:1,2013-09-08T19:00:00Z,29.4412,-92.0613,1008.28,11111222 
WAVCIS,ioos:station:WAVCIS:CSI03:1,2013-09-08T20:00:00Z,29.4412,-92.0613,1007.83,11111222 
WAVCIS,ioos:station:WAVCIS:CSI03:1,2013-09-08T21:00:00Z,29.4412,-92.0613,1007.39,11111222 
WAVCIS,ioos:station:WAVCIS:CSI03:1,2013-09-08T22:00:00Z,29.4412,-92.0613,1007.29,11111222 
WAVCIS,ioos:station:WAVCIS:CSI03:1,2013-09-08T23:00:00Z,29.4412,-92.0613,1007.28,11111222 
WAVCIS,ioos:station:WAVCIS:CSI03:1,2013-09-09T00:00:00Z,29.4412,-92.0613,1007.65,11111222 
WAVCIS,ioos:station:WAVCIS:CSI03:1,2013-09-09T01:00:00Z,29.4412,-92.0613,1007.76,11111222 
WAVCIS,ioos:station:WAVCIS:CSI03:1,2013-09-09T02:00:00Z,29.4412,-92.0613,1007.93,11111222 
WAVCIS,ioos:station:WAVCIS:CSI03:1,2013-09-09T03:00:00Z,29.4412,-92.0613,1008.3,11111222 
WAVCIS,ioos:station:WAVCIS:CSI03:1,2013-09-09T04:00:00Z,29.4412,-92.0613,1008.34,11111222 
WAVCIS,ioos:station:WAVCIS:CSI03:1,2013-09-09T05:00:00Z,29.4412,-92.0613,1008.11,11111222 
WAVCIS,ioos:station:WAVCIS:CSI03:1,2013-09-09T06:00:00Z,29.4412,-92.0613,1007.72,11111222 
WAVCIS,ioos:station:WAVCIS:CSI03:1,2013-09-09T07:00:00Z,29.4412,-92.0613,1007.62,11111222 
WAVCIS,ioos:station:WAVCIS:CSI03:1,2013-09-09T08:00:00Z,29.4412,-92.0613,1007.41,11111222 
WAVCIS,ioos:station:WAVCIS:CSI03:1,2013-09-09T09:00:00Z,29.4412,-92.0613,1007.41,11111222 
WAVCIS,ioos:station:WAVCIS:CSI03:1,2013-09-09T10:00:00Z,29.4412,-92.0613,1007.59,11111222 
WAVCIS,ioos:station:WAVCIS:CSI03:1,2013-09-09T11:00:00Z,29.4412,-92.0613,1008.05,11111222 
WAVCIS,ioos:station:WAVCIS:CSI03:1,2013-09-09T12:00:00Z,29.4412,-92.0613,1008.54,11111222 
WAVCIS,ioos:station:WAVCIS:CSI03:1,2013-09-09T13:00:00Z,29.4412,-92.0613,1009.28,11111222 
WAVCIS,ioos:station:WAVCIS:CSI03:1,2013-09-09T14:00:00Z,29.4412,-92.0613,1009.8,11111222 
WAVCIS,ioos:station:WAVCIS:CSI03:1,2013-09-09T15:00:00Z,29.4412,-92.0613,1010.32,11111222 
WAVCIS,ioos:station:WAVCIS:CSI03:1,2013-09-09T16:00:00Z,29.4412,-92.0613,1010.53,11111222 
WAVCIS,ioos:station:WAVCIS:CSI03:1,2013-09-09T17:00:00Z,29.4412,-92.0613,1010.56,11111222 
WAVCIS,ioos:station:WAVCIS:CSI03:1,2013-09-09T18:00:00Z,29.4412,-92.0613,1010.31,11111222 
WAVCIS,ioos:station:WAVCIS:CSI03:1,2013-09-09T19:00:00Z,29.4412,-92.0613,1009.95,11111222 
WAVCIS,ioos:station:WAVCIS:CSI03:1,2013-09-09T20:00:00Z,29.4412,-92.0613,1008.99,11111222 
WAVCIS,ioos:station:WAVCIS:CSI03:1,2013-09-09T21:00:00Z,29.4412,-92.0613,1008.55,11111222 
WAVCIS,ioos:station:WAVCIS:CSI03:1,2013-09-09T22:00:00Z,29.4412,-92.0613,1008.65,11111222 
WAVCIS,ioos:station:WAVCIS:CSI03:1,2013-09-09T23:00:00Z,29.4412,-92.0613,1008.61,11111222 
WAVCIS,ioos:station:WAVCIS:CSI03:1,2013-09-10T00:00:00Z,29.4412,-92.0613,1008.72,11111222 
WAVCIS,ioos:station:WAVCIS:CSI03:1,2013-09-10T01:00:00Z,29.4412,-92.0613,1008.62,11111222 
WAVCIS,ioos:station:WAVCIS:CSI03:1,2013-09-10T02:00:00Z,29.4412,-92.0613,1009.04,11111222 
WAVCIS,ioos:station:WAVCIS:CSI03:1,2013-09-10T03:00:00Z,29.4412,-92.0613,1009.15,11111222 
WAVCIS,ioos:station:WAVCIS:CSI03:1,2013-09-10T04:00:00Z,29.4412,-92.0613,1008.92,11111222 
WAVCIS,ioos:station:WAVCIS:CSI03:1,2013-09-10T05:00:00Z,29.4412,-92.0613,1008.83,11111222 
WAVCIS,ioos:station:WAVCIS:CSI03:1,2013-09-10T06:00:00Z,29.4412,-92.0613,1008.7,11111222 
WAVCIS,ioos:station:WAVCIS:CSI03:1,2013-09-10T07:00:00Z,29.4412,-92.0613,1008.91,11111222 
WAVCIS,ioos:station:WAVCIS:CSI03:1,2013-09-10T08:00:00Z,29.4412,-92.0613,1009.07,11111222 
WAVCIS,ioos:station:WAVCIS:CSI03:1,2013-09-10T09:00:00Z,29.4412,-92.0613,1009.57,11111222 
WAVCIS,ioos:station:WAVCIS:CSI03:1,2013-09-10T10:00:00Z,29.4412,-92.0613,1009.92,11111222 
WAVCIS,ioos:station:WAVCIS:CSI03:1,2013-09-10T11:00:00Z,29.4412,-92.0613,1010.33,11111222 
WAVCIS,ioos:station:WAVCIS:CSI03:1,2013-09-10T12:00:00Z,29.4412,-92.0613,1010.91,11111222 
WAVCIS,ioos:station:WAVCIS:CSI03:1,2013-09-10T13:00:00Z,29.4412,-92.0613,1011.44,11111222 
WAVCIS,ioos:station:WAVCIS:CSI03:1,2013-09-10T14:00:00Z,29.4412,-92.0613,1011.78,11111222 
WAVCIS,ioos:station:WAVCIS:CSI03:1,2013-09-10T15:00:00Z,29.4412,-92.0613,1012.22,11111222 
WAVCIS,ioos:station:WAVCIS:CSI03:1,2013-09-10T16:00:00Z,29.4412,-92.0613,1012.42,11111222 
WAVCIS,ioos:station:WAVCIS:CSI03:1,2013-09-10T17:00:00Z,29.4412,-92.0613,1012.45,11111222 
WAVCIS,ioos:station:WAVCIS:CSI03:1,2013-09-10T18:00:00Z,29.4412,-92.0613,1012.36,11111222 
WAVCIS,ioos:station:WAVCIS:CSI03:1,2013-09-10T19:00:00Z,29.4412,-92.0613,1011.6,11111222 
WAVCIS,ioos:station:WAVCIS:CSI03:1,2013-09-10T20:00:00Z,29.4412,-92.0613,1010.98,11111222 
WAVCIS,ioos:station:WAVCIS:CSI03:1,2013-09-10T21:00:00Z,29.4412,-92.0613,1009.88,11111222 
WAVCIS,ioos:station:WAVCIS:CSI03:1,2013-09-10T22:00:00Z,29.4412,-92.0613,1009.73,11111222 
WAVCIS,ioos:station:WAVCIS:CSI03:1,2013-09-10T23:00:00Z,29.4412,-92.0613,1009.87,11111222 
WAVCIS,ioos:station:WAVCIS:CSI03:1,2013-09-11T00:00:00Z,29.4412,-92.0613,1010.23,11111222 
WAVCIS,ioos:station:WAVCIS:CSI03:1,2013-09-11T01:00:00Z,29.4412,-92.0613,1010.37,11111222 
WAVCIS,ioos:station:WAVCIS:CSI03:1,2013-09-11T02:00:00Z,29.4412,-92.0613,1010.63,11111222 
WAVCIS,ioos:station:WAVCIS:CSI03:1,2013-09-11T03:00:00Z,29.4412,-92.0613,1011.38,11111222 
WAVCIS,ioos:station:WAVCIS:CSI03:1,2013-09-11T04:00:00Z,29.4412,-92.0613,1011.51,11111222 
WAVCIS,ioos:station:WAVCIS:CSI03:1,2013-09-11T05:00:00Z,29.4412,-92.0613,1011.36,11111222 
WAVCIS,ioos:station:WAVCIS:CSI03:1,2013-09-11T06:00:00Z,29.4412,-92.0613,1011.14,11111222 
WAVCIS,ioos:station:WAVCIS:CSI03:1,2013-09-11T07:00:00Z,29.4412,-92.0613,1011.15,11111222 
WAVCIS,ioos:station:WAVCIS:CSI03:1,2013-09-11T08:00:00Z,29.4412,-92.0613,1010.97,11111222 
WAVCIS,ioos:station:WAVCIS:CSI03:1,2013-09-11T09:00:00Z,29.4412,-92.0613,1010.82,11111222 
WAVCIS,ioos:station:WAVCIS:CSI03:1,2013-09-11T10:00:00Z,29.4412,-92.0613,1010.77,11111222 
WAVCIS,ioos:station:WAVCIS:CSI03:1,2013-09-11T11:00:00Z,29.4412,-92.0613,1011.21,11111222 
WAVCIS,ioos:station:WAVCIS:CSI03:1,2013-09-11T12:00:00Z,29.4412,-92.0613,1011.58,11111222 
WAVCIS,ioos:station:WAVCIS:CSI03:1,2013-09-11T13:00:00Z,29.4412,-92.0613,1011.84,11111222 
WAVCIS,ioos:station:WAVCIS:CSI03:1,2013-09-11T14:00:00Z,29.4412,-92.0613,1011.93,11111222 
WAVCIS,ioos:station:WAVCIS:CSI03:1,2013-09-11T15:00:00Z,29.4412,-92.0613,1012.48,11111222 
WAVCIS,ioos:station:WAVCIS:CSI03:1,2013-09-11T16:00:00Z,29.4412,-92.0613,1012.42,11111222 
WAVCIS,ioos:station:WAVCIS:CSI03:1,2013-09-11T17:00:00Z,29.4412,-92.0613,1012.49,11111222 
WAVCIS,ioos:station:WAVCIS:CSI03:1,2013-09-11T18:00:00Z,29.4412,-92.0613,1012.23,11111222 
WAVCIS,ioos:station:WAVCIS:CSI03:1,2013-09-11T19:00:00Z,29.4412,-92.0613,1011.63,11111222 
WAVCIS,ioos:station:WAVCIS:CSI03:1,2013-09-11T20:00:00Z,29.4412,-92.0613,1010.83,11111222 
WAVCIS,ioos:station:WAVCIS:CSI03:1,2013-09-11T21:00:00Z,29.4412,-92.0613,1010.43,11111222 
WAVCIS,ioos:station:WAVCIS:CSI03:1,2013-09-11T22:00:00Z,29.4412,-92.0613,1010.32,11111222 
WAVCIS,ioos:station:WAVCIS:CSI03:1,2013-09-11T23:00:00Z,29.4412,-92.0613,1010.34,11111222 
WAVCIS,ioos:station:WAVCIS:CSI03:1,2013-09-12T00:00:00Z,29.4412,-92.0613,1009.85,11111222 